This demonstration page uses our WeatherBlox Daily Observations layout. Learn more.

Left ArrowRight Arrow

Hourly Observations for August 18, 2020

Temp ( °F °C ) Dew Point ( °F °C ) Humidity (%) Winds ( mph kmh ) Pressure ( in mb ) Visibility ( mi km ) Precip ( " mm )
12:53 am 00:53 Clear 68 20 62 16.7 81 81 Calm 30.15 1021 10 16 0.00 0.00
1:53 am 01:53 Clear 65 18.3 60 15.6 84 84 Calm 30.14 1021 10 16 0.00 0.00
2:53 am 02:53 Clear 63 17.2 59 15 87 87 Calm 30.14 1021 10 16 0.00 0.00
3:53 am 03:53 Clear 64 17.8 59 15 84 84 Calm 30.14 1021 10 16 0.00 0.00
4:53 am 04:53 Clear 64 17.8 59 15 84 84 WSW 6 9 30.13 1020 10 16 0.00 0.00
5:53 am 05:53 Clear 64 17.8 58 14.4 81 81 WSW 3 6 30.12 1020 10 16 0.00 0.00
6:53 am 06:53 Sunny 66 18.9 57 13.9 73 73 Calm 30.12 1020 10 16 0.00 0.00
7:53 am 07:53 Sunny 66 18.9 59 15 78 78 Calm 30.14 1021 10 16 0.00 0.00
8:53 am 08:53 Sunny 70 21.1 61 16.1 73 73 Calm 30.15 1021 10 16 0.00 0.00
9:53 am 09:53 Mostly Cloudy with Light Rain 69 20.6 62 16.7 78 78 WNW 6 9 30.18 1022 10 16 0.00 0.00
10:53 am 10:53 Mostly Cloudy 74 23.3 62 16.7 67 67 Calm 30.15 1021 10 16 0.00 0.00
11:53 am 11:53 Mostly Sunny 75 23.9 59 15 58 58 Calm 30.16 1021 10 16 0.00 0.00
12:53 pm 12:53 Mostly Sunny 75 23.9 64 17.8 69 69 S 6 9 30.13 1020 10 16 0.01 0.25
1:53 pm 13:53 Sunny 78 25.6 62 16.7 58 58 S 6 9 30.10 1019 10 16 0.00 0.00
2:53 pm 14:53 Mostly Sunny 78 25.6 64 17.8 62 62 S 8 13 30.07 1018 10 16 0.00 0.00
3:53 pm 15:53 Sunny 84 28.9 61 16.1 46 46 S 8 13 30.05 1018 10 16 0.00 0.00
4:53 pm 16:53 Sunny 83 28.3 63 17.2 51 51 SSE 12 19 30.04 1017 10 16 0.00 0.00
5:53 pm 17:53 Sunny 83 28.3 61 16.1 48 48 SSE 12 19 30.04 1017 10 16 0.00 0.00
6:53 pm 18:53 Sunny 79 26.1 64 17.8 60 60 SE 12 19 30.03 1017 10 16 0.00 0.00
7:53 pm 19:53 Sunny 76 24.4 64 17.8 67 67 ESE 12 19 30.04 1017 10 16 0.00 0.00
8:53 pm 20:53 Clear 73 22.8 62 16.7 69 69 SE 9 15 30.04 1017 10 16 0.00 0.00
9:53 pm 21:53 Clear 72 22.2 63 17.2 73 73 SSE 8 13 30.05 1018 10 16 0.00 0.00
10:53 pm 22:53 Clear 71 21.7 63 17.2 76 76 SE 13 20 30.05 1018 10 16 0.00 0.00
11:53 pm 23:53 Clear 70 21.1 62 16.7 76 76 SSE 10 17 30.05 1018 10 16 0.00 0.00

Powered by AerisWeather